sat.trackr.live / text

‹ back to catalog

STARLINK-1845

NORAD 47135 · 2020-088P

PAYLOAD ACTIVE UNKNOWN

§ Identity

Operator
Country
US
Launch date
2020-11-25
Launch site
AFETR
Launch vehicle
Mass (kg)
RCS (m²)

Purposes: comms

External: N2YO · Heavens-Above · Gunter

§ Orbital elements

Epoch: 2026-05-24T18:53:46.188096Z

Period
91.79 min
Inclination
53.0463°
Eccentricity
0.0002680
Mean motion
15.68799788 rev/d
Perigee alt
360.5 km
Apogee alt
364.1 km
Semi-major
6,740.5 km
B*
6.6983e-4
RAAN
265.3390°
Arg perigee
232.9963°
Mean anomaly
127.0808°
Rev number
30,407

§ Raw data

STARLINK-18451 47135U 20088P   26144.78734014  .00078331  00000+0  66983-3 0  99952 47135  53.0463 265.3390 0002680 232.9963 127.0808 15.68799788304079

JSON: /api/v1/satellites/47135 · /tle

For live sub-satellite position, see the globe view (requires WebGL).

§ Visibility from observer

Set your observer location to see the next 7 days of passes ≥ 10°. The values pass through the URL so the page stays shareable.

No JS? Fill the form by hand. The geolocation button needs JavaScript.